Weather History for Vero Beach, FL

Change the Weather History Date:

Sunday, September 9, 2012

  Actual Average Record
Temperature  
Mean Temperature 83 °F 81 °F  
Max Temperature 91 °F 89 °F 95 °F (1987)
Min Temperature 75 °F 74 °F 66 °F (1972)
Degree Days  
Heating Degree Days 0 0  
Month to date heating degree days 0 0  
Since 1 July heating degree days 0 0  
Cooling Degree Days 18 16  
Month to date cooling degree days 135 144  
Year to date cooling degree days 2668 2442  
Growing Degree Days 32 (Base 50)    
Moisture  
Dew Point 73 °F    
Average Humidity 75    
Maximum Humidity 94    
Minimum Humidity 56    
Precipitation  
Precipitation T in 0.21 in 4.62 in (1956)
Month to date precipitation 4.71 2.03  
Year to date precipitation 36.90 36.73  
Sea Level Pressure  
Sea Level Pressure 29.93 in    
Wind  
Wind Speed 11 mph (SW)    
Max Wind Speed 25 mph    
Max Gust Speed 33 mph    
Visibility 10 miles    
Events      
T = Trace of Precipitation, MM = Missing Value Source: NWS Daily Summary

Daily Weather History Graph

Daily Weather History Graph

Search for Another Location

Airport:

Trip Planner

Search our weather history database for the weather conditions in past years. The results will help you decide how hot, cold, wet, or windy it might be!

Date:

Astronomy

Sep. 09, 2012 Rise Set
Actual Time 7:04 AM EDT 7:32 PM EDT
Civil Twilight 6:40 AM EDT 7:56 PM EDT
Nautical Twilight 6:13 AM EDT 8:23 PM EDT
Astronomical Twilight 5:45 AM EDT 8:51 PM EDT
Moon 12:55 AM EDT (9/9) 2:54 PM EDT (9/9)
Length of Visible Light 13h 15m
Length of Day
12h 28m
Last Quarter, 39% of the Moon is Illuminated
Sep 9
Last Quarter
Sep 15
New
Sep 22
First Quarter
Sep 29
Full
Oct 8
Last Quarter

Hourly Weather History & Observations

Time (EDT) Temp. Heat Index Dew Point Humidity Pressure Visibility Wind Dir Wind Speed Gust Speed Precip Events Conditions
12:53 AM 77.0 °F - 72.0 °F 84% 29.93 in 10.0 mi SSW 5.8 mph - N/A   Clear
1:53 AM 75.9 °F - 72.0 °F 87% 29.92 in 10.0 mi South 5.8 mph - N/A   Clear
2:53 AM 75.0 °F - 72.0 °F 90% 29.91 in 10.0 mi South 6.9 mph - N/A   Clear
3:53 AM 75.9 °F - 72.0 °F 87% 29.91 in 10.0 mi SW 6.9 mph - N/A   Clear
4:53 AM 75.0 °F - 73.0 °F 94% 29.92 in 10.0 mi SW 5.8 mph - N/A   Clear
5:53 AM 75.0 °F - 73.0 °F 94% 29.93 in 10.0 mi SSW 5.8 mph - N/A   Clear
6:53 AM 75.0 °F - 73.0 °F 94% 29.93 in 8.0 mi SSW 3.5 mph - N/A   Clear
7:53 AM 77.0 °F - 73.9 °F 90% 29.94 in 7.0 mi SSW 6.9 mph - N/A   Clear
8:53 AM 81.0 °F 86.2 °F 73.9 °F 79% 29.96 in 10.0 mi SW 13.8 mph 20.7 mph N/A   Clear
9:53 AM 84.9 °F 93.3 °F 75.0 °F 72% 29.96 in 10.0 mi SW 16.1 mph 21.9 mph N/A   Partly Cloudy
10:53 AM 86.0 °F 93.0 °F 73.0 °F 65% 29.95 in 10.0 mi SW 18.4 mph 24.2 mph N/A   Scattered Clouds
11:53 AM 89.1 °F 97.0 °F 73.0 °F 59% 29.94 in 10.0 mi WSW 18.4 mph 26.5 mph N/A   Scattered Clouds
12:53 PM 90.0 °F 97.9 °F 73.0 °F 57% 29.93 in 10.0 mi SW 16.1 mph 27.6 mph N/A   Scattered Clouds
1:53 PM 88.0 °F 94.7 °F 72.0 °F 59% 29.91 in 10.0 mi SW 20.7 mph 28.8 mph N/A   Scattered Clouds
2:53 PM 90.0 °F 96.9 °F 72.0 °F 55% 29.90 in 10.0 mi WSW 21.9 mph 29.9 mph N/A   Scattered Clouds
3:53 PM 89.1 °F 96.0 °F 72.0 °F 57% 29.88 in 10.0 mi WSW 21.9 mph 32.2 mph N/A   Scattered Clouds
4:53 PM 88.0 °F 94.7 °F 72.0 °F 59% 29.89 in 10.0 mi West 18.4 mph 21.9 mph N/A   Scattered Clouds
5:53 PM 87.1 °F 94.5 °F 73.0 °F 63% 29.92 in 10.0 mi WNW 10.4 mph - N/A   Mostly Cloudy
6:53 PM 84.0 °F 90.2 °F 73.0 °F 69% 29.93 in 10.0 mi West 9.2 mph - 0.00 in   Scattered Clouds
7:53 PM 81.0 °F 85.2 °F 72.0 °F 74% 29.93 in 10.0 mi West 6.9 mph - N/A   Clear
8:53 PM 80.1 °F 84.2 °F 73.0 °F 79% 29.95 in 10.0 mi West 4.6 mph - N/A   Clear
9:53 PM 80.1 °F 84.5 °F 73.9 °F 81% 29.97 in 10.0 mi SW 4.6 mph - N/A   Mostly Cloudy
10:53 PM 80.1 °F 84.5 °F 73.9 °F 81% 29.98 in 10.0 mi WSW 4.6 mph - N/A   Overcast
11:53 PM 79.0 °F - 75.0 °F 88% 29.97 in 10.0 mi SSW 3.5 mph - N/A   Mostly Cloudy